Location: Brantley
(31.5822°N, 86.2569°W)
Time: 16:11:42
(UTC+00:00)

Injun/Solrad 3 - Pass Details

Date: 22 February 2026
Orbit: 871 x 985 km, 66.8° (Epoch: 11 March)

Event Time Altitude Azimuth Distance (km) Brightness Sun altitude
Rises 15:04:28 0° 194° (SSW) 3,443 11.2 31.1°
Reaches altitude 10° 15:06:58 10° 190° (S) 2,507 10.6 31.6°
Maximum altitude 15:12:38 60° 112° (ESE) 995 9.4 32.5°
Drops below altitude 10° 15:18:24 10° 33° (NNE) 2,546 10.2 33.4°
Sets 15:20:56 0° 30° (NNE) 3,501 10.8 33.9°
